TimePDT,TemperatureF,Dew PointF,Humidity,Sea Level PressureIn,VisibilityMPH,Wind Direction,Wind SpeedMPH,Gust SpeedMPH,PrecipitationIn,Events,Conditions,WindDirDegrees,DateUTC
12:53 AM,57.9,21.0,24,29.88,10.0,Calm,Calm,-,N/A,,Clear,0,2013-06-18 07:53:00
1:53 AM,54.0,24.1,31,29.88,10.0,Variable,3.5,-,N/A,,Clear,0,2013-06-18 08:53:00
2:53 AM,51.1,24.1,35,29.88,10.0,ENE,5.8,-,N/A,,Clear,60,2013-06-18 09:53:00
3:53 AM,46.9,21.9,37,29.87,10.0,WNW,4.6,-,N/A,,Clear,290,2013-06-18 10:53:00
4:53 AM,43.0,19.0,38,29.88,10.0,Calm,Calm,-,N/A,,Clear,0,2013-06-18 11:53:00
5:53 AM,42.1,19.9,41,29.88,10.0,SE,4.6,-,N/A,,Clear,140,2013-06-18 12:53:00
6:53 AM,54.0,24.1,31,29.86,10.0,Calm,Calm,-,N/A,,Clear,0,2013-06-18 13:53:00
7:53 AM,62.1,27.0,26,29.85,10.0,Calm,Calm,-,N/A,,Clear,0,2013-06-18 14:53:00
8:53 AM,69.1,27.0,21,29.83,10.0,ENE,3.5,-,N/A,,Clear,70,2013-06-18 15:53:00
9:53 AM,73.9,21.9,14,29.82,10.0,Variable,4.6,-,N/A,,Clear,0,2013-06-18 16:53:00
10:53 AM,77.0,19.0,11,29.79,10.0,SW,15.0,-,N/A,,Clear,220,2013-06-18 17:53:00
11:53 AM,80.1,17.1,9,29.76,10.0,West,11.5,21.9,N/A,,Clear,270,2013-06-18 18:53:00
12:53 PM,80.1,16.0,9,29.74,8.0,Variable,5.8,-,N/A,,Partly Cloudy,0,2013-06-18 19:53:00
1:53 PM,82.0,17.1,9,29.71,10.0,Variable,6.9,-,N/A,,Clear,0,2013-06-18 20:53:00
2:53 PM,84.0,17.1,8,29.68,10.0,South,9.2,16.1,N/A,,Clear,180,2013-06-18 21:53:00
3:53 PM,82.9,19.0,9,29.68,10.0,West,25.3,36.8,N/A,,Clear,260,2013-06-18 22:53:00
4:53 PM,78.1,15.1,9,29.69,10.0,WNW,24.2,33.4,N/A,,Clear,290,2013-06-18 23:53:00
5:53 PM,75.0,17.1,11,29.70,10.0,West,27.6,34.5,N/A,,Mostly Cloudy,280,2013-06-19 00:53:00
6:53 PM,73.0,12.9,10,29.70,10.0,West,20.7,27.6,N/A,,Clear,280,2013-06-19 01:53:00
7:53 PM,72.0,19.9,14,29.70,10.0,West,18.4,26.5,N/A,,Clear,280,2013-06-19 02:53:00
8:53 PM,66.0,21.9,19,29.72,10.0,West,23.0,-,N/A,,Clear,280,2013-06-19 03:53:00
9:53 PM,63.0,21.9,21,29.74,10.0,West,15.0,-,N/A,,Clear,280,2013-06-19 04:53:00
10:53 PM,61.0,25.0,25,29.75,10.0,WNW,21.9,-,N/A,,Clear,300,2013-06-19 05:53:00
11:53 PM,57.0,27.0,32,29.78,10.0,NW,11.5,-,N/A,,Clear,320,2013-06-19 06:53:00